Dewpoint
71 71 72 71 72 73 72 72 72 71 72 72 74 72 73 72 73 75 76 72 73 73 73 72 74 76 68 62 62 62 62 62 60 60 61 67 75 74 73 74 72 73 67
69 71 71 71 71 71 72 72 73 74 72 72 72 73 73 72 74 75 72 69 71 71 71 72 71 68 76 75 67 74 69 71 65 72 70 65 72 74 75 77 72 67 68
67 68 69 70 70 70 71 72 73 73 73 70 72 75 73 72 74 74 74 73 71 71 71 72 72 73 75 71 73 67 65 68 69 67 66 65 66 66 69 75 76 74 67
70 67 68 70 70 70 72 73 71 74 74 73 73 74 74 73 72 72 73 74 74 72 72 72 72 72 75 75 73 76 73 72 71 66 64 64 64 70 67 66 65 64 64
69 69 69 70 71 71 72 72 72 74 74 74 74 73 73 70 68 73 73 72 75 74 74 74 73 71 70 71 69 75 76 72 67 64 63 62 62 64 68 65 65 64 68
67 67 69 72 73 74 72 72 73 73 74 75 74 74 73 66 63 65 71 72 74 75 74 75 76 72 71 67 67 67 71 75 76 67 63 63 74 69 64 63 65 64 63
61 61 65 67 68 70 73 74 75 74 74 75 75 74 75 75 64 62 65 69 72 74 75 75 73 67 72 74 69 67 67 66 67 74 75 74 74 76 76 76 73 72 69
59 59 61 63 65 67 69 73 74 74 74 75 74 75 76 74 64 62 64 71 71 73 74 75 76 75 75 74 74 73 74 74 74 71 73 74 75 76 77 75 76 77 74
58 61 60 60 61 63 66 67 72 75 76 74 74 74 75 76 64 61 64 70 68 72 73 74 74 76 71 66 74 74 74 74 66 66 68 67 67 65 68 71 67 65 62
56 58 59 61 61 60 61 64 67 71 74 76 74 74 71 75 66 61 63 69 70 68 72 74 66 70 65 63 74 74 74 74 74 71 71 70 68 71 65 72 70 67 65
55 56 58 59 60 62 62 63 64 65 69 73 75 76 75 73 74 60 59 72 69 68 67 67 68 61 60 59 60 75 74 74 72 72 70 68 67 69 71 73 75 71 68
55 56 57 58 58 56 61 65 64 65 66 69 73 74 73 77 68 64 58 60 68 71 70 67 67 58 56 57 60 63 62 65 71 68 65 62 61 62 62 66 75 76 74
54 55 56 57 56 58 58 60 57 64 64 65 66 67 70 74 76 64 59 58 60 69 71 68 58 58 54 56 56 57 59 68 69 68 67 67 65 62 68 71 74 80 79
53 53 53 54 54 54 54 53 51 53 56 60 62 63 65 65 72 77 75 70 63 66 67 69 67 64 60 63 66 62 66 68 69 69 69 68 67 65 63 64 63 63 64
50 49 50 49 50 52 53 51 52 54 52 54 55 57 58 60 65 57 57 63 65 63 61 68 71 70 69 70 71 71 72 71 70 70 69 69 67 66 65 65 63 63 64
50 47 45 46 47 46 46 46 47 48 47 49 47 51 55 53 51 50 48 49 49 51 63 70 71 73 72 71 70 71 71 70 70 70 70 69 68 68 67 67 65 64 64
50 51 49 48 47 47 47 46 45 46 48 47 46 46 45 49 46 45 44 45 47 51 65 68 70 72 73 74 72 69 69 70 73 70 69 69 69 68 67 67 66 65 65
48 47 47 47 47 46 46 46 46 46 46 47 47 49 49 47 46 45 44 46 61 59 65 68 70 72 74 74 74 74 71 72 71 72 72 71 71 69 68 68 67 67 66
44 45 46 47 47 47 47 47 47 47 47 47 48 48 49 48 46 45 45 58 62 65 67 68 69 71 71 71 74 74 76 76 75 76 76 74 74 75 74 70 69 62 64
42 45 47 46 47 46 46 47 47 47 47 48 48 49 51 53 56 57 57 63 63 64 65 68 72 71 70 73 75 74 75 75 76 76 73 75 75 75 74 74 74 73 74
39 40 43 43 44 45 45 45 47 47 47 48 48 49 45 53 53 54 57 59 59 58 59 62 64 72 72 73 74 75 74 74 75 76 76 76 76 75 75 75 74 74 73
42 44 44 42 43 44 45 45 46 45 47 48 47 48 47 51 51 53 56 54 54 53 53 54 56 58 60 61 61 64 66 69 69 70 73 74 74 74 74 73 73 73 72
36 37 38 40 41 41 42 43 43 44 45 46 47 47 49 49 50 52 51 50 49 49 50 50 51 54 54 55 55 55 57 60 61 62 64 65 66 66 67 69 71 71 71
38 37 37 38 40 40 40 40 42 42 44 45 46 45 48 49 49 49 47 47 46 46 46 46 46 46 48 49 50 50 51 50 52 58 61 62 63 63 66 66 64 63 64
38 38 38 39 39 39 39 39 40 41 43 44 45 45 46 47 46 45 45 44 43 43 42 42 43 42 42 42 43 43 40 35 44 47 58 61 62 62 62 62 61 60 60
40 38 38 38 38 38 38 38 39 40 40 41 42 43 43 44 43 42 42 42 41 40 40 40 40 39 38 38 38 36 34 37 46 41 58 58 58 58 57 56 56 56 56
Lifted_Index
-6 -5 -5 -5 -5 -5 -5 -4 -4 -4 -4 -4 -4 -4 -4 -4 -4 -4 -4 -4 -4 -4 -4 -4 -4 -5 -4 -3 -3 -3 -2 -2 -2 -2 -3 -3 -4 -5 -5 -6 -6 -5 -4
-5 -5 -5 -5 -5 -5 -5 -5 -4 -4 -4 -4 -4 -4 -4 -4 -4 -4 -4 -3 -3 -3 -4 -4 -4 -4 -5 -4 -4 -3 -3 -3 -3 -3 -3 -3 -3 -4 -5 -6 -6 -5 -4
-5 -5 -5 -5 -5 -5 -5 -5 -5 -4 -4 -4 -4 -4 -4 -4 -4 -4 -4 -4 -4 -4 -4 -4 -4 -4 -5 -5 -4 -4 -4 -4 -4 -4 -3 -3 -3 -3 -4 -5 -5 -4 -4
-5 -5 -5 -5 -5 -5 -5 -5 -5 -5 -5 -4 -4 -4 -4 -4 -4 -4 -4 -4 -4 -4 -4 -4 -4 -4 -4 -4 -5 -5 -4 -4 -4 -3 -3 -3 -3 -3 -3 -4 -4 -3 -3
-4 -5 -5 -5 -5 -5 -5 -5 -5 -5 -5 -5 -5 -5 -4 -4 -3 -4 -4 -4 -4 -4 -5 -5 -4 -4 -4 -4 -4 -4 -4 -5 -4 -3 -2 -2 -2 -3 -3 -3 -3 -3 -3
-3 -4 -4 -5 -5 -5 -5 -5 -5 -5 -6 -6 -6 -6 -5 -4 -3 -3 -3 -4 -4 -5 -5 -5 -5 -4 -4 -4 -4 -3 -3 -4 -4 -3 -3 -3 -3 -3 -3 -3 -3 -3 -3
-2 -3 -3 -4 -4 -4 -5 -5 -6 -6 -6 -6 -6 -6 -6 -5 -3 -2 -2 -3 -4 -5 -5 -6 -5 -5 -5 -5 -4 -4 -3 -3 -4 -4 -4 -4 -4 -4 -4 -4 -4 -4 -4
-1 -1 -2 -3 -3 -3 -4 -5 -5 -6 -6 -6 -6 -6 -6 -6 -5 -3 -2 -3 -3 -4 -5 -6 -6 -6 -6 -6 -5 -5 -5 -5 -4 -4 -4 -5 -5 -5 -5 -4 -4 -4 -4
2 1 0 -1 -2 -2 -3 -4 -5 -5 -6 -6 -6 -6 -6 -6 -6 -5 -4 -3 -3 -4 -4 -5 -5 -6 -6 -6 -5 -6 -6 -6 -5 -4 -4 -4 -4 -4 -3 -3 -3 -2 -2
4 4 3 2 1 -1 -2 -3 -3 -4 -5 -5 -6 -6 -6 -6 -6 -5 -5 -4 -3 -4 -4 -4 -4 -4 -5 -5 -5 -5 -6 -6 -5 -4 -4 -4 -4 -4 -3 -3 -2 -2 -1
6 6 5 4 3 2 0 -1 -2 -3 -3 -4 -5 -6 -6 -6 -6 -6 -5 -5 -4 -4 -4 -4 -4 -3 -3 -3 -3 -4 -5 -5 -5 -4 -3 -3 -3 -3 -3 -3 -4 -4 -3
7 6 6 5 5 4 3 2 1 -1 -2 -3 -4 -5 -6 -6 -6 -5 -5 -5 -4 -4 -4 -4 -4 -3 -3 -3 -3 -3 -3 -4 -4 -3 -3 -2 -2 -2 -2 -3 -4 -5 -5
8 7 6 6 6 5 5 5 4 2 0 -1 -3 -4 -5 -5 -6 -5 -5 -5 -5 -4 -4 -4 -4 -3 -3 -3 -3 -3 -3 -3 -3 -3 -3 -3 -2 -2 -2 -2 -3 -5 -5
9 8 8 7 7 6 6 6 6 5 3 2 1 -1 -2 -4 -5 -5 -5 -5 -5 -4 -4 -4 -4 -3 -3 -4 -4 -4 -4 -3 -3 -3 -3 -3 -3 -3 -2 -2 -2 -3 -3
9 9 8 8 8 7 7 6 6 6 6 5 5 4 2 -0 -2 -3 -3 -4 -4 -4 -4 -4 -4 -4 -4 -4 -4 -5 -5 -4 -4 -4 -4 -4 -4 -3 -3 -3 -2 -2 -2
8 8 8 8 8 8 8 8 8 7 7 7 7 7 6 4 3 1 0 -1 -2 -3 -3 -4 -4 -5 -5 -5 -5 -5 -5 -5 -5 -4 -4 -4 -4 -4 -4 -3 -3 -3 -3
9 8 8 8 8 9 9 9 9 8 8 8 8 8 7 6 5 4 3 2 1 -1 -2 -3 -4 -5 -5 -5 -6 -6 -6 -6 -6 -5 -5 -5 -5 -4 -4 -4 -4 -4 -4
9 9 9 9 9 9 9 9 9 9 9 8 8 8 7 7 6 5 4 3 2 0 -1 -2 -4 -5 -5 -6 -6 -6 -6 -7 -7 -6 -6 -6 -6 -5 -5 -5 -4 -4 -4
10 10 10 9 9 9 9 9 9 9 9 9 8 8 7 7 6 5 5 4 3 1 -1 -2 -3 -4 -5 -5 -6 -6 -7 -7 -7 -7 -7 -7 -7 -6 -6 -6 -5 -5 -5
10 10 10 10 10 10 10 9 9 9 9 8 8 8 7 7 7 7 6 5 3 2 0 -1 -3 -4 -4 -5 -6 -6 -7 -7 -7 -7 -7 -7 -7 -7 -7 -7 -6 -6 -6
10 10 10 10 10 10 10 10 9 9 8 8 8 8 8 8 8 8 8 6 4 3 1 -1 -2 -4 -4 -4 -5 -5 -6 -6 -6 -7 -7 -8 -8 -8 -7 -7 -7 -7 -7
11 11 10 10 10 11 11 11 10 9 8 8 7 8 8 9 9 9 9 7 5 3 2 0 -1 -3 -3 -3 -3 -4 -4 -5 -5 -5 -6 -7 -7 -7 -7 -7 -7 -7 -7
11 11 11 11 11 11 11 11 10 9 9 8 8 8 8 9 9 9 9 7 5 4 2 1 -0 -1 -2 -2 -2 -2 -3 -3 -3 -3 -4 -5 -5 -5 -6 -6 -6 -6 -6
12 12 12 12 12 12 12 11 10 10 9 8 8 7 7 8 8 8 7 6 4 3 2 1 -0 -1 -2 -2 -2 -2 -2 -2 -2 -2 -3 -3 -4 -4 -4 -4 -4 -4 -5
12 12 13 12 12 12 12 11 11 10 9 8 7 6 6 6 6 6 6 5 4 2 1 1 0 -1 -2 -2 -2 -2 -1 -1 -2 -2 -2 -3 -3 -3 -3 -3 -3 -3 -4
13 13 13 13 13 13 13 12 11 10 9 8 7 6 5 5 5 5 5 4 3 2 1 1 0 -1 -1 -2 -2 -2 -2 -2 -2 -2 -3 -3 -2 -2 -2 -2 -2 -3 -3